DW7102 Weather Reports


time (UTC)temp
C
wind
direction
speed
KPH
gust
KPH
rain 1hr
cm
rain 24hr
cm
rain mn
cm
humidity
%
barometer
mb
20260502130203 6 294 3.2 12.9 0.00 0.08 0.00 65 1012.6
20260502123203 5 302 4.8 14.5 0.00 0.10 0.00 68 1012.6
20260502113704 3 293 3.2 9.7 0.00 0.13 0.00 74 1012.3
20260502113203 3 274 1.6 12.9 0.00 0.13 0.00 76 1012.4
20260502110703 3 285 3.2 9.7 0.00 0.15 0.00 78 1012.3
20260502070200 2 260 1.6 9.7 0.00 0.25 0.00 82 1010.9
20260502063701 2 278 3.2 4.8 0.00 0.25 0.00 82 1010.8
20260502063201 2 268 1.6 4.8 0.00 0.25 0.00 82 1010.7
20260502053201 2 273 3.2 11.3 0.00 0.33 0.00 81 1010.6
20260502050200 2 250 3.2 9.7 0.00 0.33 0.00 80 1010.6
20260502043701 3 267 3.2 9.7 0.00 0.36 0.00 78 1010.8
20260502040701 3 270 3.2 11.3 0.00 0.38 0.00 78 1010.8
20260502040200 3 255 1.6 16.1 0.00 0.41 0.00 77 1010.8
20260502033201 3 308 4.8 14.5 0.00 0.46 0.41 78 1010.8
20260502030201 3 263 4.8 16.1 0.00 0.51 0.41 77 1010.8
20260502023701 4 298 1.6 14.5 0.00 0.53 0.41 77 1010.7
20260502020202 4 292 4.8 11.3 0.00 0.64 0.41 76 1010.7
20260502013701 5 269 3.2 9.7 0.00 0.71 0.41 75 1010.5
20260502010201 5 278 3.2 11.3 0.00 0.81 0.41 73 1010.3
20260502003701 5 245 1.6 4.8 0.00 0.91 0.41 73 1009.9
20260502003201 5 280 3.2 12.9 0.00 0.94 0.41 73 1009.8
20260502000702 5 265 4.8 9.7 0.00 1.09 0.41 72 1009.5
20260501233702 5 255 3.2 11.3 0.00 1.19 0.41 70 1009.2
20260501230701 6 259 4.8 14.5 0.00 1.30 0.41 70 1008.9
20260501230202 6 275 4.8 19.3 0.00 1.32 0.41 70 1008.9
20260501223201 6 250 8.0 19.3 0.00 1.37 0.41 69 1009.0
20260501220702 7 296 9.7 16.1 0.00 1.37 0.41 66 1008.8
20260501213702 7 292 8.0 20.9 0.00 1.37 0.41 64 1008.3
20260501213201 7 285 8.0 22.5 0.00 1.37 0.41 65 1008.2
20260501210702 9 259 8.0 20.9 0.00 1.37 0.41 62 1007.9
20260501210202 8 279 4.8 22.5 0.00 1.37 0.41 64 1008.0
20260501203202 8 261 8.0 24.1 0.00 1.37 0.41 63 1007.9
20260501200702 9 251 4.8 19.3 0.00 1.37 0.41 64 1007.9
20260501193202 9 235 4.8 19.3 0.00 1.37 0.41 67 1007.8
20260501190702 8 277 6.4 19.3 0.00 1.37 0.41 71 1007.9
20260501190202 8 264 3.2 19.3 0.00 1.37 0.41 71 1007.9
20260501183203 7 311 8.0 20.9 0.00 1.40 0.41 74 1007.9
20260501180202 7 304 8.0 16.1 0.00 1.45 0.41 78 1007.9